Hoquiam, WA
on Monday, February 4, 2013

Monday
Previous Day Next Day
Daily Summary
 ActualAverageRecord
Temperature
Mean Temperature °F 43°F  
Max Temperature 50°F 49°F 62°F (1993)
Min Temperature 44°F 38°F 19°F (1989)
Degree Days
Heating Degree Days 18 22  
Month to date heating degree days 88  
Cooling Degree Days 0 0  
Month to date cooling degree days 0  
Year to date cooling degree days 0  
Moisture
Dew Point 43°F   
Average Humidity 86    
Maximum Humidity 93    
Minimum Humidity 74    
Precipitation
Precipitation 0.00 in 0.29 in 2.11 in (1961)
Month to date precipitation 1.13  
Year to date precipitation 11.46  
Wind
Wind Speed 5 mph   
Max Wind Speed 15 mph   
Max Gust Speed 24 mph   
Visibility 10 miles   
Events     

Key: T is trace of precipitation, MM is missing value
Source: NWS Daily Summary
Time(PST)TemperatureDew PointHumidity Pressure Visibility Wind DirectionWind SpeedGust SpeedPrecipitationEvents Conditions
12:49 AM 44.6°F 42.8°F 93% 30.21 in 9.0 miles South 4.6 mph - N/A   Overcast
12:53 AM 45.0°F 43.0°F 93% 30.23 in 9.0 miles South 5.8 mph - N/A   Overcast
2:53 AM 44.6°F 42.8°F 93% 30.21 in 10.0 miles South 5.8 mph - N/A   Overcast
3:53 AM 45.0°F 42.1°F 90% 30.19 in 10.0 miles SE 6.9 mph - N/A   Overcast
4:53 AM 45.0°F 42.1°F 90% 30.19 in 10.0 miles SE 5.8 mph - N/A   Overcast
5:53 AM 45.0°F 43.0°F 93% 30.19 in 10.0 miles Calm Calm - N/A   Overcast
6:53 AM 45.0°F 42.1°F 90% 30.17 in 10.0 miles East 4.6 mph - N/A   Overcast
7:53 AM 45.0°F 42.1°F 90% 30.17 in 10.0 miles East 4.6 mph - N/A   Overcast
8:53 AM 45.0°F 42.1°F 90% 30.16 in 10.0 miles East 5.8 mph - N/A   Overcast
9:53 AM 46.0°F 42.1°F 86% 30.16 in 10.0 miles East 4.6 mph - N/A   Overcast
10:53 AM 46.9°F 42.1°F 83% 30.16 in 10.0 miles NE 5.8 mph - N/A   Overcast
11:53 AM 48.0°F 43.0°F 83% 30.14 in 10.0 miles ENE 4.6 mph - N/A   Overcast
12:53 PM 48.9°F 42.1°F 77% 30.10 in 10.0 miles ENE 3.5 mph - N/A   Overcast
1:53 PM 50.0°F 42.1°F 74% 30.06 in 10.0 miles East 4.6 mph - N/A   Overcast
2:53 PM 50.0°F 42.1°F 74% 30.04 in 10.0 miles Calm Calm - N/A   Overcast
3:48 PM 48.2°F 42.8°F 82% 30.03 in 10.0 miles West 3.5 mph - N/A   Overcast
3:53 PM 48.9°F 42.1°F 77% 30.04 in 10.0 miles WSW 4.6 mph - N/A   Overcast
4:53 PM 48.0°F 42.1°F 80% 30.01 in 10.0 miles Calm Calm - N/A   Overcast
5:53 PM 46.9°F 42.1°F 83% 29.96 in 10.0 miles Calm Calm - N/A   Partly Cloudy
6:07 PM 46.4°F 44.6°F 93% 29.95 in 10.0 miles South 8.1 mph - N/A   Mostly Cloudy
6:53 PM 46.9°F 43.0°F 86% 29.97 in 10.0 miles South 5.8 mph - N/A   Overcast
7:17 PM 44.6°F 42.8°F 93% 29.93 in 10.0 miles East 3.5 mph - N/A   Scattered Clouds
7:36 PM 46.4°F 42.8°F 87% 29.94 in 10.0 miles South 5.8 mph - N/A   Mostly Cloudy
7:53 PM 46.9°F 42.1°F 83% 29.95 in 10.0 miles South 8.1 mph - N/A   Overcast
8:53 PM 46.9°F 42.1°F 83% 29.94 in 10.0 miles SSE 9.2 mph - N/A   Overcast
9:32 PM 46.4°F 42.8°F 87% 29.92 in 10.0 miles SE 8.1 mph - N/A   Overcast
9:53 PM 46.9°F 43.0°F 86% 29.93 in 10.0 miles ESE 6.9 mph - N/A   Overcast
10:53 PM 46.9°F 42.1°F 83% 29.92 in 10.0 miles SSE 13.8 mph - N/A   Overcast
11:14 PM 46.4°F 42.8°F 87% 29.91 in 10.0 miles South 15.0 mph 24.2 mph N/A   Overcast
11:28 PM 46.4°F 42.8°F 87% 29.91 in 10.0 miles SSE 12.7 mph - N/A   Overcast
Moon Phase
Feb. 04 Feb. 10 Feb. 17 Feb. 25 Mar. 04
Sunrise:07:36 AM (PST) Moon Rise:02:23 AM (PST)2/4
Sunset:05:23 PM (PST) Moon Set:11:46 AM (PST)2/4

Copyright © 2014 The Weather Underground, Inc.